Location: Endfield
(51.6667°N, 0.0667°W)
Time: 12:54:08
(UTC+00:00)

AO-27 - Pass Details

Date: 13 September 2024
Orbit: 783 x 796 km, 98.8° (Epoch: 08 October)

Event Time Altitude Azimuth Distance (km) Brightness Sun altitude
Exits shadow 21:13:33 25° 212° (SSW) 1,565 9.0 -25.1°
Maximum altitude 21:15:59 39° 263° (W) 1,177 8.8 -25.4°
Drops below altitude 10° 21:20:54 10° 332° (NNW) 2,371 11.1 -25.9°
Sets 21:23:23 0° 340° (NNW) 3,303 11.9 -26.2°
